Location: *
(41.3833°S, 177.8333°W)
Time: 08:20:41
(UTC+00:00)

AQUARIUS - Pass Details

Date: 01 April 2020
Orbit: 650 x 652 km, 98.0° (Epoch: 03 June)

Event Time Altitude Azimuth Distance (km) Brightness Sun altitude
Rises 17:33:36 0° 7° (N) 2,965 7.6 -7.3°
Reaches altitude 10° 17:35:49 10° 3° (N) 2,062 6.8 -6.9°
Maximum altitude 17:40:17 65° 281° (W) 730 4.2 -6.0°
Drops below altitude 10° 17:44:50 10° 199° (SSW) 2,091 6.6 -5.2°
Sets 17:47:05 0° 195° (SSW) 3,011 7.4 -4.7°
